Hourly Data Report for September 06, 2020

GIMLI CLIMATE
MANITOBA
Current Station Operator: ECCC - MSC

50°38'00.000" N
97°03'00.000" W
230.10 m
5031042
71748
PGH

Download Data

Hourly Data (September 2020)
Hourly Data Report for September 6, 2020
TIME Temp Definition
°C
Dew Point Definition
°C
Rel Hum Definition
%
Wind Dir Definition
10's deg

Wind Spd Definition
km/h
Visibility Definition
km
Stn Press Definition
kPa
Hmdx Definition


Wind Chill Definition


Weather Definition


00:00 16.3 9.6 64 17 10   97.98     LegendNANA
01:00 16.0 9.7 66 18 8   97.86     LegendNANA
02:00 16.0 10.6 70 30 13   97.98     LegendNANA
03:00 14.0 12.2 89 7 13   97.65     LegendNANA
04:00 15.3 11.8 80 16 10   97.49     LegendNANA
05:00 11.9 10.3 90 35 8   97.44     LegendNANA
06:00 11.9 10.0 89 31 4   97.41     LegendNANA
07:00 12.5 11.1 91 31 10   97.42     LegendNANA
08:00 13.9 12.9 93 31 10   97.42     LegendNANA
09:00 14.1 12.3 89 29 26   97.54     LegendNANA
10:00 16.5 12.2 76 29 27   97.55     LegendNANA
11:00 16.4 11.2 72 29 35   97.57     LegendNANA
12:00 17.6 8.1 54 29 42   97.58     LegendNANA
13:00 16.2 5.5 49 30 52   97.64     LegendNANA
14:00 16.1 5.6 50 29 48   97.66     LegendNANA
15:00 14.4 7.2 62 29 45   97.75     LegendNANA
16:00 14.3 5.2 55 30 44   97.81     LegendNANA
17:00 11.5 8.0 79 32 37   98.08     LegendNANA
18:00 11.4 6.5 72 33 32   98.31     LegendNANA
19:00 10.7 6.3 74 32 23   98.44     LegendNANA
20:00 9.3 6.6 83 34 28   98.55     LegendNANA
21:00 9.6 7.1 85 32 17   98.63     LegendNANA
22:00 8.8 6.8 87 32 14   98.67     LegendNANA
23:00 8.9 7.0 88 31 12   98.68     LegendNANA

Notes on Data Quality.

Legend

  • E = Estimated
  • M = Missing
  • NA = Not Available*
  • [empty] = Indicates an unobserved value
Date modified: